Location: Unspecified
(39.2833°N, 0.0000°E)
Time: 07:00:05
(UTC+00:00)

CHECKMATE 10 - Visible Passes

Search period start: 04 April 2026 00:00
Search period end: 14 April 2026 00:00
Orbit: 941 x 948 km, 81.0° (Epoch: 29 March)

Date Brightness Start Highest point End Pass type
(mag) Time Alt. Az. Time Alt. Az. Time Alt. Az.
4 Apr ? 02:59:51 10° N 03:05:27 36° ENE 03:11:00 10° SE visible
4 Apr ? 04:45:01 10° NNW 04:50:16 31° W 04:55:29 10° SSW visible
5 Apr ? 03:15:41 10° N 03:21:41 57° ENE 03:27:39 10° SSE visible
5 Apr ? 05:01:56 10° NW 05:06:06 19° W 05:10:14 10° SW visible
6 Apr ? 01:49:32 10° NE 01:51:58 12° ENE 01:54:23 10° E visible
6 Apr ? 03:31:42 10° N 03:37:50 88° E 03:43:56 10° S visible
7 Apr ? 02:04:08 10° NNE 02:08:28 20° ENE 02:12:46 10° ESE visible
7 Apr ? 03:47:54 10° NNW 03:53:53 59° W 03:59:49 10° S visible
8 Apr ? 02:19:32 10° N 02:24:51 30° ENE 02:30:08 10° SE visible
8 Apr ? 04:04:18 10° NNW 04:09:50 37° W 04:14:23 14° SSW visible
9 Apr ? 02:35:15 10° N 02:41:08 47° ENE 02:44:56 21° SE visible
9 Apr ? 04:21:02 10° NW 04:25:42 23° W 04:28:50 16° SW visible
10 Apr ? 02:51:11 10° N 02:57:18 75° E 02:59:46 38° SSE visible
10 Apr ? 04:38:25 10° NW 04:41:28 14° W 04:43:41 12° WSW visible
11 Apr ? 01:24:04 10° NNE 01:27:48 16° ENE 01:30:53 12° E visible
11 Apr ? 03:07:19 10° NNW 03:13:23 71° W 03:14:50 52° SSW visible
12 Apr ? 01:39:15 10° NNE 01:44:15 26° ENE 01:46:08 22° E visible
12 Apr ? 03:23:38 10° NNW 03:29:23 44° W 03:30:05 43° WSW visible
13 Apr ? 01:54:51 10° N 02:00:33 39° ENE 02:01:30 37° E visible
13 Apr ? 03:40:13 10° NNW 03:45:17 28° W 03:45:27 28° W visible
